DELTA 1 DEB, 1313

Orbit data source: Space-Track

DELTA 1 DEB, 1313 is space debris in SSO originally from a launch on Fri, 22 Jan 1965 UTC launched from the Air Force Eastern Test Range (AFETR). Debris objects in space refer to the collection of defunct objects orbiting the Earth. Examples of debris include non-operational satellites, rocket bodies, and fragments generated from explosions, collisions, or faulty payload assembly.

Loading next visibility...
Identifier
1313, 1965-004D
Orbit
SSO
Country
Flag of USUS
Related business
Manufacturer
Unknown
Mission
Spacecraft
Bus & Motor
Unknown
Mass
~1 kg wet, ~1 kg dry
Launch date (UTC)
1965-01-22 (61 years ago)
Launch vehicle
Unknown
Launch site
Air Force Eastern Test Range (AFETR)
Object type
Payload
Rocket body
Debris
Shape & HBR
Unknown
Radar Cross Section
Small (<0.1 m²)

Expand to show TLE details & history
Last TLE update: 5 days ago

TLE from 5 days ago
0 DELTA 1 DEB
1 01313U 65004D   25299.64229413  .00000393  00000-0  59308-3 0  9994
2 01313  96.4211 353.0029 1174472 101.3675 272.1398 12.00804907658411
Epoch: 2025-10-26T15:24Z
TLE epoch observation values (Epoch: 2025-10-26T15:24:54.212Z)
Latitude
0.00003°
Longitude
86.52145°
Altitude
1,755.35 km
Speed
6.969 km/s
True Right ascension
23h 32m 00s
True Declination
0° 00' 00"
Sunlit
Object was in full shadow at epoch
Visualization orbit readout
Latitude
Unknown
Longitude
Unknown
Altitude
Unknown
Speed
Unknown
Apparent Right ascension
Unknown
Apparent Declination
Unknown
Sunlit
N/A
Visualization observer readout
Local Sidereal Time
16:10:02
Azimuth
Unknown
Elevation
Unknown
Doppler factor
Unknown
Orbital elements
Apogee altitude
2,620.346 km
Perigee altitude
728.809 km
Semi-major axis
8,052.715 km
Eccentricity
0.11745
Inclination
96.4211°
RAAN
353.0029°
Arg. of periapsis
101.3675°
True anomaly
258.73986°
Mean anomaly
272.1398°
Eccentric anomaly
265.43195°
Mean motion
3.00351 °/min
Orbital period
119.86 mins
BSTAR
0.00059308
Loading maneuver chart data...
Computing Atmospheric mass density...
Loading historical data...
Loading historical data...
Loading historical data...
Loading historical data...
Loading historical data...
Loading historical data...
Loading historical data...
Other satellites on launch #4 in the year 1965 (1965-01-22 UTC)

Documentation

Showing up to 5 results
|